Regional Weather Roundup
Issued by NWS Grand Forks, ND

Home | Current Version | Previous Version | Text Only | Print | Product List | Glossary Off
Versions: 1 2 3 4 5 6 7 8 9 10 11 12 13 14 15 16 17 18 19 20 21 22 23 24 25 26 27 28 29 30 31 32 33 34 35 36 37 38 39 40 41 42 43 44 45 46 47 48 49 50

000
ASUS43 KFGF 302210
RWRFGF
PRAIRIE TO PINES  WEATHER ROUNDUP
NATIONAL WEATHER SERVICE EASTERN NORTH DAKOTA/GRAND FORKS ND
500 PM CDT FRI SEP 30 2016

 **SATELLITE DATA USED TO AUGMENT SKY COVER AT AUTOMATED STATIONS**
 *****  WEATHER ACROSS EASTERN NORTH DAKOTA  *****

CITY           SKY/WX    TMP DP  RH WIND       PRES   REMARKS
GRAND FORKS    MOSUNNY   71  49  45 SE15      30.19F
GRAND FRKS AFB MOSUNNY   68  49  49 SE10      30.19S
GRAND FRKS NWS   N/A     68 N/A N/A SE15        N/A
DEVILS LAKE    CLOUDY    64  51  62 SE8       30.16F
FARGO          CLOUDY    71  48  43 SE17G23   30.20F
WAHPETON ARPT  CLOUDY    70  45  40 SE12      30.21S
$$

 ***** WEATHER ACROSS CENTRAL AND WESTERN NORTH DAKOTA  *****

CITY           SKY/WX    TMP DP  RH WIND       PRES   REMARKS
BISMARCK       CLOUDY    68  48  48 SE15      30.08F
MINOT          CLOUDY    62  54  74 E6        30.07S
JAMESTOWN      MOSUNNY   68  48  48 SE15      30.14F
MINOT AFB      DRIZZLE   60  53  80 SE7       30.07S
GARRISON         N/A     64  53  67 SE7       30.06S
WILLISTON      PTSUNNY   62  51  67 VRB3      30.00R
DICKINSON      SUNNY     67  45  45 S22       30.01S
HETTINGER      CLOUDY    68  46  45 SE16      30.04R
$$

 *****  OTHER AIRPORT OBSERVATIONS IN OUR AREA  *****

CITY           SKY/WX    TMP DP  RH WIND       PRES   REMARKS
WALHALLA       FAIR      66  63  88 SE10      30.18F
GRAFTON AIRPOR FAIR      68  54  60 SE15      30.21S
VALLEY CITY AR FAIR      70  48  46 SE21      30.19F
CANDO          FAIR      64  50  59 S13       30.19R
CAVALIER APRT  FAIR      68  50  52 S13G18    30.19S
GWINNER        FAIR      72  52  49 SE15G22   30.19R
SHEYENNE NWR     N/A     68  45  42 S13       29.95S
ROLLA          MOCLDY    61  46  59 S10       30.16S
 ***** THE ABOVE OBSERVATIONS ARE NON NWS ARE NOT QUALITY
       CONTROLLED AND MAY MIS-REPORT RAIN FOR SNOW...
$$

  *****  WEATHER ACROSS NORTHERN MINNESOTA  *****

CITY           SKY/WX    TMP DP  RH WIND       PRES   REMARKS
FLAG ISLAND    CLOUDY    54  50  87 SE13      30.29F
WARROAD        MOSUNNY   59  54  82 SE7       30.29F
ROSEAU         MOSUNNY   61  54  77 SE8       30.28S
HALLOCK        MOSUNNY   70  55  60 SE13      30.21S
THF RVR FALLS  MOSUNNY   64  54  69 E13       30.25S
BAUDETTE       PTSUNNY   56  50  80 SE8       30.31F
WASKISH        MOSUNNY   63  54  72 SE8       30.30S
CROOKSTON      PTSUNNY   68  48  49 S14       30.22S
GREENBUSH NDAW   N/A     64  54  68 E12         N/A
$$
  *****  WEATHER ACROSS CENTRAL AND WEST MINNESOTA  *****

CITY           SKY/WX    TMP DP  RH WIND       PRES   REMARKS
FOSSTON        MOSUNNY   66  48  52 SE9       30.25F
BEMIDJI        SUNNY     60  51  73 SE6       30.28F
PARK RAPIDS    SUNNY     67  48  50 E7        30.26F
ELBOW LAKE     FAIR      67  51  57 SE10      30.24F
WADENA         SUNNY     64  50  59 E9        30.26S
DETROIT LAKES  MOSUNNY   63  54  72 SE8       30.26F
MOORHEAD       CLOUDY    70  48  46 SE16      30.21F
FERGUS FALLS   MOSUNNY   66  50  55 SE10      30.25S
MORRIS MN      CLOUDY    72  48  43 E10G17    30.22S
STAPLES        SUNNY     66  50  55 E7        30.26F
$$
  *****  WEATHER ELSEWHERE ACROSS MINNESOTA  *****

CITY           SKY/WX    TMP DP  RH WIND       PRES   REMARKS
DULUTH         CLOUDY    55  51  86 E12       30.33F
INTRNTL FALLS  CLOUDY    58  51  78 VRB7      30.33F
ELY            SUNNY     68  43  40 SE6       30.32F
CLOQUET        CLOUDY    55  50  82 E7        30.33S
WHEATON        NOT AVBL
BRAINERD       SUNNY     66  48  52 SE7       30.28F
HIBBING        SUNNY     65  45  48 SE10      30.31F
ALEXANDRIA     SUNNY     67  47  48 SE12      30.26F
SAINT CLOUD    SUNNY     69  48  47 E8        30.24F
MINNEAPOLIS    MOSUNNY   71  49  45 NE12      30.22F
$$

  *****  WEATHER ACROSS SOUTH DAKOTA  *****

CITY           SKY/WX    TMP DP  RH WIND       PRES   REMARKS
SIOUX FALLS    PTSUNNY   73  46  38 SE8       30.18F
BROOKINGS      SUNNY     71  46  40 SE10      30.19F
WATERTOWN      SUNNY     71  45  39 SE9       30.19F
HURON          MOSUNNY   69  46  43 SE13G21   30.14F
SISSETON         N/A     70  50  49 SE12G21   30.18F
ABERDEEN       CLOUDY    73  43  33 S15G25    30.15F
MITCHELL       MOSUNNY   71  44  37 S13       30.16F
PIERRE         MOSUNNY   72  46  39 SE18      30.06F
MOBRIDGE       MOSUNNY   74  44  34 SE23G31   30.06F
RAPID CITY     CLOUDY    70  50  49 SE9       30.02F
$$

  *****  SOME WEATHER IN NEARBY STATES *****

CITY           SKY/WX    TMP DP  RH WIND       PRES   REMARKS
GLASGOW MT     SUNNY     79  51  37 NW7       29.92F
GREAT FALLS MT SUNNY     79  44  28 VRB7      29.97F
CHEYENNE WY    CLOUDY    68  44  42 E3        30.20F
SCOTTSBLUFF NE PTSUNNY   69  49  48 SE12      30.12F
OMAHA NE       MOSUNNY   76  46  34 NE6       30.15F
DES MOINES IA  CLOUDY    66  55  67 NE10      30.17S
DAVENPORT IA   CLOUDY    63  57  81 NE14      30.12S
CHICAGO IL     CLOUDY    63  59  87 NE15      30.08S
EAU CLAIRE WI  SUNNY     73  47  39 NE9       30.20F
LA CROSSE WI   CLOUDY    66  57  72 E6        30.19F
$$

  *****  SOME NATIONAL WEATHER *****

CITY           SKY/WX    TMP DP  RH WIND       PRES   REMARKS
LA GUARDIA NY  LGT RAIN  63  58  83 NE28G40   30.24S
RALEIGH NC     TSTM      80  73  79 SE9       29.98R
ATLANTA GA     MOSUNNY   74  47  38 N7        30.03R
NEW ORLEANS LA MOSUNNY   82  56  40 NW7       30.03F
OKLAHOMA CITY  MOSUNNY   75  43  31 CALM      30.12F
ALBUQUERQUE NM MOSUNNY   77  50  38 CALM      30.20F
SALT LAKE CITY MOSUNNY   77  48  35 VRB6      30.10F
LOS ANGELES CA MOSUNNY   77  59  53 W12       29.97F
BOISE ID       SUNNY     86  31  13 S10G26    29.92F
SEATTLE WA     MOSUNNY   62  47  57 W6        29.98F
$$

*** WEATHER ACROSS MANITOBA...SASKATCHEWAN AND ONTARIO ***
                ***ONTARIO***

CITY           SKY/WX    TMP DP  RH WIND       PRES   REMARKS
GERALDTON      MOSUNNY   66  50  55 VRB2      30.39S
THUNDER BAY    MOSUNNY   66  50  55 E8        30.35F
SIOUX LOOKOUT  PTSUNNY   64  50  59 S5        30.33F
TORONTO        MOCLDY    63  52  67 E17G28    30.24S
BIG TROUT LK   SUNNY     63  50  63 S5        30.31F
PICKLE LAKE    MOSUNNY   63  48  59 S10       30.35F
DRYDEN         SUNNY     64  50  59 S10       30.33F
KENORA         PTSUNNY   59  50  72 S14       30.31F
$$
                *** MANITOBA***

CITY           SKY/WX    TMP DP  RH WIND       PRES   REMARKS
BRANDON        PTSUNNY   63  50  63 S12G20    30.11F
DAUPHIN        SUNNY     64  54  68 SE13G22   30.07F
ISLAND LAKE    MOSUNNY   66  52  59 S5        30.22S
PILOT MOUND      N/A     66  50  55 S17G24      N/A
THE PAS        MOSUNNY   66  50  55 SE18G25   30.02F
THOMPSON       MOSUNNY   63  54  72 SE6       30.15F
WINNIPEG       PTSUNNY   66  52  59 S17       30.20F
LYNN LAKE      CLOUDY    50  48  93 NE10      30.14F
GILLAM         CLOUDY    54  54 100 NE8       30.23F
$$
                ***SASKATCHEWAN***

CITY           SKY/WX    TMP DP  RH WIND       PRES   REMARKS
ESTEVAN        LGT RAIN  57  54  88 E10G17    30.02S
KINDERSLEY     PTSUNNY   64  52  63 E9        29.94F
LLOYDMINSTER   CLOUDY    55  48  76 NE12      30.01R
PRINCE ALBERT  MOSUNNY   66  52  59 SE7       29.96F
REGINA         MOSUNNY   72  50  46 SE16      29.97S
YORKTON        MOSUNNY   66  50  55 SE14G22   30.00S
N. BATTLEFORD  SUNNY     61  50  67 SW3       30.00S
LA RONGE       CLOUDY    52  50  93 N10       30.07R
SASKATOON      MOSUNNY   68  50  52 CALM      29.96F
SWIFT CURRENT  SUNNY     68  50  52 NW9       29.97S
$$
NOTE: THESE ARE AUTOMATED STATIONS WITH LIMITED QUALITY CONTROL
      "FAIR" INDICATES FEW OR NO CLOUDS BELOW 12,000 FEET WITH NO
      SIGNIFICANT WEATHER AND/OR OBSTRUCTIONS TO VISIBILITY.
      SKY/WX - SKY CONDITION AND SIGNIFICANT WEATHER.
      TMP - AIR TEMPERATURE.    DP   - DEWPOINT TEMPERATURE.
      RH  - RELATIVE HUMIDITY.  PRES - PRESSURE.
      HX  - HEAT INDEX.         WCI  - WIND CHILL INDEX.
$




USA.gov is the U.S. government's official web portal to all federal, state and local government web resources and services.